[[{"header":{"parameterUnit":"m.s-1","parameterCategory":1,"la1":30.2991,"la2":30.254,"lo1":-89.0895,"lo2":-89.0444,"dy":0.0017,"dx":0.0017,"nx":28,"ny":28,"refTime":"2024-07-04T21:00:00:Z","depth":0,"parameterNumber":2,"parameterNumberName":"U-component_of_WINDS"},"data":[0,0,0,0,0,0,0,0,0,0,0,0,0,0,0,0,0,0,0,0,0,0,0,0,0,0,0,0,0,0,0,0,0,0,0,0,0,0,0,0,0,0,0,0,0,0,0,0,0,0,0,0,0,0,0,0,0,0,3.7082,3.7083,0,3.721,3.7211,3.7213,3.7181,3.7179,3.7176,3.7174,3.7306,3.7311,3.7317,0,0,0,0,0,0,0,0,0,0,0,0,0,3.6806,3.6812,3.7081,3.7083,3.7085,3.721,3.7212,3.7213,3.7182,3.7178,3.7175,3.7173,3.7304,3.7311,3.7318,0,0,0,0,0,0,0,0,0,0,0,0,0,3.693,3.6813,3.7081,3.7084,3.7085,3.7209,3.7212,3.7214,3.7182,3.7178,3.7175,3.7171,3.7301,3.731,3.7319,3.7448,0,0,3.7345,3.7349,0,0,0,0,0,0,0,0,3.6923,3.694,3.7082,3.7084,3.7086,3.7176,3.7163,3.7292,3.7183,3.7145,3.7174,3.7169,3.7265,3.7277,3.7309,3.7454,3.746,3.7346,3.7351,3.7355,3.7358,0,0,0,0,0,0,0,3.6914,3.6934,3.7132,3.7084,3.7086,3.7078,3.7091,3.7187,3.7225,3.7148,3.7146,3.7162,3.7266,3.7301,3.7312,3.7462,3.7346,3.7354,3.7359,3.7362,3.7715,3.7719,0,0,0,0,0,0,3.6904,3.6927,3.7128,3.7136,3.6993,3.7086,3.7101,3.7151,3.7224,3.7231,3.7165,3.716,3.7288,3.7302,3.7317,3.7469,3.7355,3.7363,3.7368,3.7711,3.7716,3.772,0,0,0,0,0,0,3.6898,3.6922,3.7123,3.7031,3.7056,3.7095,3.7151,3.7155,3.719,3.7236,3.7243,3.7194,3.7285,3.7304,3.7414,3.7474,3.7367,3.7375,3.7706,3.7712,3.7718,3.7778,0,0,0,0,0,0,3.6891,3.692,3.6971,3.7032,3.7061,3.7219,3.7155,3.716,3.7205,3.72,3.7265,3.7273,3.7284,3.7402,3.7423,3.7484,3.7382,3.7701,3.7709,3.7716,3.7771,3.7786,3.7798,0,0,0,0,0,3.6881,3.6983,3.6973,3.6998,3.7125,3.7223,3.7239,3.725,3.721,3.726,3.7289,3.7271,3.7464,3.7413,3.7437,3.7501,3.7697,3.7706,3.7715,3.7765,3.7783,3.7798,0,0,0,0,0,0,3.6928,3.6992,3.6981,3.7107,3.716,3.7217,3.7281,3.7269,3.7334,3.7327,3.7337,3.7352,3.7464,3.7494,3.7436,3.7628,3.7575,3.7589,3.7604,3.7622,3.7635,3.7624,3.7389,0,0,0,0,0,3.6953,3.7028,3.708,3.7186,3.7212,3.7242,3.7286,3.7289,3.7344,3.7366,3.7404,3.7458,3.753,3.7578,3.7648,3.7776,3.7788,3.7832,3.7846,3.7856,3.7868,3.7934,3.7953,3.775,3.775,3.775,0,0,3.7006,3.705,3.7097,3.7196,3.7237,3.7313,3.7261,3.7345,3.7401,3.7379,3.7484,3.7514,3.7575,3.7693,3.7748,3.7722,3.7927,3.7868,3.7877,3.7882,3.7946,3.7965,3.7982,3.7757,3.7755,3.7755,0,0,3.7139,3.7182,3.7272,3.7315,3.7377,3.7396,3.7418,3.7477,3.7495,3.7601,3.7585,3.7652,3.7779,3.7821,3.786,3.8007,3.7991,3.803,3.81,3.8164,3.818,3.8194,3.8243,3.8261,3.8042,3.8042,3.8042,0,3.7196,3.7311,3.7321,3.7405,3.7448,3.7431,3.7522,3.7563,3.7645,3.7675,3.7645,3.78,3.7841,3.7967,3.8003,3.8036,3.8059,3.8021,3.8177,3.8191,3.8205,3.8251,3.827,3.8046,3.8045,3.8045,3.8045,0,3.7376,3.7456,3.7522,3.76,3.7651,3.7738,3.776,3.781,3.7809,3.7831,3.7937,3.7984,3.8062,3.8093,3.8094,3.8219,3.82,3.8174,3.812,3.8228,3.8272,3.829,3.8052,3.805,3.8049,3.8048,0,0,3.7543,3.7624,3.7648,3.7682,3.7749,3.781,3.7896,3.7971,3.8012,3.807,3.814,3.8246,3.8221,3.8264,3.827,3.8327,3.8436,3.8293,3.8294,3.8315,3.8573,3.859,3.861,3.8426,3.843,3.8433,3.8566,0,3.768,3.783,3.784,3.7976,3.8047,3.8032,3.8106,3.8154,3.8177,3.824,3.8265,3.8338,3.8302,3.8327,3.8383,3.8411,3.8487,3.8402,3.849,3.8493,3.8471,3.8634,3.8653,3.8777,3.8584,3.8587,3.8589,0,3.7859,3.792,3.8062,3.8116,3.8147,3.8213,3.8281,3.8343,3.8397,3.8408,3.8456,3.8452,3.8539,3.8483,3.86,3.8542,3.8579,3.8598,3.8603,3.8609,3.8545,3.8641,3.8817,3.8834,3.8617,3.8615,3.8613,0,3.7962,3.808,3.8179,3.8209,3.8276,3.8322,3.8352,3.8402,3.8446,3.8505,3.8533,3.8602,3.864,3.8693,3.8707,3.8666,3.8823,3.877,3.8833,3.8833,3.8865,3.8862,3.9045,3.8895,3.8894,3.8894,3.8894,0,3.8111,3.8198,3.8225,3.8286,3.8382,3.8393,3.8487,3.8514,3.8559,3.8623,3.8616,3.8676,3.8693,3.8757,3.8769,3.8862,3.8881,3.8891,3.8893,3.889,3.8888,3.8912,3.8902,3.8899,3.8898,3.8897,3.8896,0,3.8241,3.8264,3.837,3.8424,3.8439,3.8507,3.8552,3.861,3.863,3.8712,3.8732,3.8764,3.8838,3.8859,3.8948,3.8956,3.9065,3.906,3.9046,3.9045,3.9106,3.9099,3.9308,3.9335,3.917,3.9171,3.9173,0,3.8334,3.84,3.846,3.8502,3.8533,3.8603,3.8646,3.8659,3.8705,3.877,3.8819,3.8892,3.895,3.9069,3.91,3.9168,3.9163,3.9232,3.9173,3.9167,3.9159,3.9154,3.9159,3.9242,3.9243,3.9245,3.9246,0,3.8494,3.8501,3.8564,3.8631,3.8683,3.8736,3.8787,3.8822,3.8842,3.8894,3.8969,3.9014,3.9104,3.9176,3.9243,3.9273,3.9262,3.9265,3.9282,3.9278,3.9266,3.927,3.9073,3.9259,3.9258,3.9257,3.9256,3.9256,3.8606,3.8662,3.8712,3.8782,3.8822,3.8869,3.8924,3.8951,3.9014,3.9087,3.9092,3.9172,3.9222,3.9312,3.9346,3.9408,3.9387,3.9414,3.942,3.9425,3.9429,3.9258,3.9421,3.9421,3.942,3.942,3.942,0,3.8763,3.8794,3.8858,3.8928,3.8983,3.8968,3.9023,3.9069,3.914,3.9187,3.9245,3.9329,3.9398,3.9434,3.9502,3.9545,3.9541,3.9562,3.9557,3.9563,3.9445,3.9421,3.9563,3.9563,3.9563,3.9563,3.9563,3.9563,3.885,3.8943,3.8956,3.9068,3.9099,3.9177,3.9209,3.9252,3.9289,3.9384,3.9441,3.9463,3.9506,3.9576,3.9638,3.9647,3.967,3.9693,3.9699,3.9587,3.9572,3.9558,3.9535,3.9699,3.9699,3.9811,3.9812,3.9813]},{"header":{"parameterUnit":"m.s-1","parameterCategory":1,"la1":30.2991,"la2":30.254,"lo1":-89.0895,"lo2":-89.0444,"dy":0.0017,"dx":0.0017,"nx":28,"ny":28,"refTime":"2024-07-04T21:00:00:Z","depth":0,"parameterNumber":3,"parameterNumberName":"V-component_of_WINDS"},"data":[0,0,0,0,0,0,0,0,0,0,0,0,0,0,0,0,0,0,0,0,0,0,0,0,0,0,0,0,0,0,0,0,0,0,0,0,0,0,0,0,0,0,0,0,0,0,0,0,0,0,0,0,0,0,0,0,0,0,3.8252,3.8252,0,3.8294,3.8294,3.8295,3.824,3.8238,3.8236,3.8234,3.8274,3.8277,3.828,0,0,0,0,0,0,0,0,0,0,0,0,0,3.812,3.8123,3.8252,3.8252,3.8253,3.8294,3.8294,3.8295,3.824,3.8238,3.8236,3.8233,3.8273,3.8277,3.828,0,0,0,0,0,0,0,0,0,0,0,0,0,3.8171,3.8124,3.8252,3.8231,3.8229,3.8294,3.8294,3.8295,3.8241,3.8238,3.8235,3.8232,3.8272,3.8276,3.8281,3.8367,0,0,3.8294,3.8296,0,0,0,0,0,0,0,0,3.8168,3.8176,3.8233,3.8232,3.8231,3.8259,3.8263,3.8319,3.8242,3.8236,3.8234,3.8231,3.8271,3.8276,3.829,3.8369,3.8371,3.8294,3.8297,3.8299,3.83,0,0,0,0,0,0,0,3.8165,3.8174,3.8268,3.8234,3.8233,3.8218,3.8222,3.8273,3.827,3.8237,3.8233,3.8239,3.827,3.8286,3.829,3.8371,3.8294,3.8298,3.8301,3.8303,3.8521,3.8524,0,0,0,0,0,0,3.8164,3.8171,3.8267,3.827,3.8192,3.8223,3.8227,3.8253,3.8269,3.8269,3.8241,3.8236,3.828,3.8285,3.8292,3.8392,3.8299,3.8303,3.8305,3.8518,3.8522,3.8525,0,0,0,0,0,0,3.8162,3.8173,3.8265,3.8219,3.823,3.8228,3.8257,3.8255,3.8271,3.8273,3.8271,3.8258,3.8278,3.8285,3.8348,3.8393,3.8305,3.8309,3.8514,3.8519,3.8524,3.8596,0,0,0,0,0,0,3.8158,3.8173,3.8207,3.8221,3.8233,3.8323,3.826,3.8258,3.8279,3.8272,3.8288,3.8288,3.8276,3.8342,3.8353,3.8397,3.8312,3.851,3.8516,3.8522,3.8589,3.8602,3.8613,0,0,0,0,0,3.8154,3.8225,3.8209,3.822,3.8275,3.8326,3.8332,3.8318,3.8283,3.8316,3.8317,3.8287,3.8387,3.8349,3.8361,3.8407,3.8507,3.8515,3.8522,3.8584,3.86,3.8613,0,0,0,0,0,0,3.8215,3.8226,3.8208,3.8287,3.8306,3.8316,3.8358,3.8335,3.8364,3.8357,3.8337,3.8341,3.8408,3.8414,3.8372,3.8491,3.8441,3.8451,3.8484,3.8499,3.8511,3.8508,3.8316,0,0,0,0,0,3.8238,3.8279,3.8286,3.8354,3.8365,3.836,3.8381,3.8369,3.8387,3.8395,3.84,3.8418,3.8453,3.8477,3.8509,3.859,3.8592,3.8628,3.864,3.865,3.8658,3.8699,3.8715,3.8549,3.8549,3.8549,0,0,3.8285,3.8296,3.8323,3.8367,3.838,3.8422,3.8367,3.8414,3.8444,3.8401,3.8461,3.8466,3.8485,3.8557,3.8588,3.8564,3.8704,3.8659,3.8667,3.867,3.8708,3.8724,3.8738,3.8554,3.8553,3.8552,0,0,3.8392,3.8406,3.8463,3.8478,3.8499,3.8495,3.8509,3.8523,3.8524,3.8584,3.8553,3.8588,3.8649,3.8663,3.8679,3.879,3.8764,3.8802,3.8864,3.8905,3.8918,3.893,3.8968,3.8982,3.881,3.881,3.881,0,3.8448,3.8511,3.8495,3.8544,3.8563,3.8528,3.8585,3.8599,3.863,3.8643,3.8615,3.8691,3.8701,3.8775,3.8802,3.8816,3.883,3.8799,3.8918,3.8929,3.8939,3.8976,3.8991,3.8815,3.8814,3.8814,3.8813,0,3.8577,3.8621,3.8665,3.8696,3.872,3.8773,3.8764,3.879,3.8775,3.8774,3.8835,3.8846,3.8879,3.8896,3.8882,3.8968,3.8951,3.8921,3.887,3.896,3.8994,3.9008,3.8821,3.8819,3.8818,3.8817,0,0,3.8724,3.8745,3.8761,3.8774,3.8795,3.8828,3.8878,3.8912,3.8934,3.8956,3.8997,3.9049,3.9021,3.9038,3.9025,3.9061,3.9147,3.9026,3.9026,3.9047,3.9241,3.9263,3.9279,3.913,3.9133,3.9135,3.9239,0,3.8829,3.8918,3.8905,3.899,3.9029,3.8996,3.9039,3.9056,3.9056,3.9088,3.9087,3.9124,3.9085,3.9095,3.913,3.913,3.9186,3.9122,3.9166,3.9168,3.9162,3.9297,3.9321,3.9418,3.9252,3.9254,3.9256,0,3.8965,3.8992,3.9081,3.9095,3.9111,3.915,3.9179,3.9211,3.9229,3.9226,3.9245,3.9226,3.9274,3.9224,3.929,3.9247,3.9264,3.9267,3.9271,3.9273,3.9217,3.9302,3.9449,3.9463,3.9277,3.9275,3.9274,0,3.9061,3.912,3.9181,3.9193,3.9211,3.9239,3.9247,3.9262,3.9283,3.9308,3.932,3.9351,3.9367,3.939,3.9379,3.9343,3.9447,3.9395,3.9444,3.9445,3.9466,3.9465,3.9617,3.948,3.948,3.948,3.9479,0,3.918,3.9235,3.9224,3.9261,3.9321,3.9306,3.9366,3.937,3.9383,3.9419,3.9392,3.9426,3.9409,3.9442,3.9433,3.9488,3.9496,3.9494,3.9491,3.9496,3.9496,3.9506,3.9498,3.9483,3.9483,3.9482,3.9481,0,3.9297,3.9292,3.9355,3.9367,3.9371,3.9415,3.9424,3.9458,3.9456,3.9502,3.9511,3.9508,3.9545,3.9536,3.9576,3.957,3.9639,3.9628,3.9633,3.963,3.9679,3.9674,3.9842,3.9862,3.9713,3.9715,3.9716,0,3.9373,3.9414,3.943,3.9453,3.9464,3.9501,3.9522,3.9508,3.953,3.9553,3.9584,3.9619,3.9646,3.9706,3.9706,3.9736,3.9725,3.9781,3.9729,3.9732,3.9724,3.9721,3.9724,3.9791,3.9793,3.9794,3.9796,0,3.9507,3.9502,3.9534,3.9565,3.9591,3.9615,3.9635,3.9655,3.9643,3.9669,3.9707,3.9728,3.9769,3.9804,3.9831,3.9838,3.9815,3.9812,3.9825,3.983,3.9831,3.9829,3.966,3.9808,3.9807,3.9806,3.9805,3.9805,3.9604,3.9639,3.9656,3.9692,3.9706,3.9726,3.9758,3.9761,3.9792,3.9825,3.9815,3.9858,3.9873,3.9908,3.9918,3.995,3.9929,3.9947,3.9952,3.9956,3.9962,3.9827,3.9956,3.9955,3.9955,3.9954,3.9954,0,3.9735,3.9744,3.9778,3.9808,3.9836,3.9813,3.9835,3.9859,3.9898,3.9914,3.9941,3.9984,4.0017,4.002,4.0051,4.0076,4.0066,4.0084,4.0082,4.0083,3.998,3.9966,4.0092,4.0092,4.0092,4.0092,4.0092,4.0092,3.9807,3.9865,3.9862,3.9926,3.9934,3.9977,3.9991,4.0009,4.0022,4.0071,4.0099,4.0101,4.0111,4.0142,4.0171,4.0171,4.0183,4.0205,4.0201,4.0104,4.0091,4.0078,4.0064,4.0209,4.0209,4.0301,4.0302,4.0303]}]]